Regional Weather Roundup
Issued by NWS

Home | Current Version | Previous Version | Graphics & Text | Print | Product List | Glossary On
Versions: 1 2 3 4 5 6 7 8 9 10 11 12 13 14 15 16 17 18 19 20 21 22 23 24 25 26 27 28 29 30 31 32 33 34 35 36 37 38 39 40 41 42 43 44 45 46 47 48 49 50
000
ASUS43 KMKX 230110
RWRWI

WISCONSIN REGIONAL WEATHER ROUNDUP
NATIONAL WEATHER SERVICE MILWAUKEE/SULLIVAN WI
800 PM CDT TUE MAY 22 2018

NOTE: "FAIR" INDICATES FEW OR NO CLOUDS BELOW 12,000 FEET WITH NO
SIGNIFICANT WEATHER AND/OR OBSTRUCTIONS TO VISIBILITY.

WIZ001-002-006>008-014>016-023>028-230200-
NORTHWEST WISCONSIN

CITY           SKY/WX    TMP DP  RH WIND       PRES   REMARKS
SUPERIOR ARPT  FAIR      74  54  49 W5        30.00S
ASHLAND        FAIR      75  52  44 CALM      30.01S
HAYWARD        FAIR      72  55  55 SW8       30.04R
SIREN          MOCLDY    69  55  60 SW3       30.05R
CUMBERLAND     CLOUDY    68  52  56 SW5       30.05S
RICE LAKE      CLOUDY    70  55  58 S5        30.06S
CHETEK         FAIR      69  57  67 CALM      30.05S
LADYSMITH      FAIR      69  56  64 SW5       30.07R
EAU CLAIRE     FAIR      68  57  68 S6        30.05S
MENOMONIE      FAIR      68  56  66 S3        30.05S
NEW RICHMOND   FAIR      70  51  50 CALM      30.04S
OSCEOLA        FAIR      72  54  53 CALM      30.06S
$$

WIZ003>005-009-010-017-018-230200-
NORTH CENTRAL WISCONSIN

CITY           SKY/WX    TMP DP  RH WIND       PRES   REMARKS
MANITOWISH WTR CLOUDY    70  53  55 W3        30.04R
ARBOR VITAE    MOCLDY    72  54  53 W5        30.04R
WOODRUFF       MOCLDY    72  54  53 W5        30.04R
RHINELANDER    CLOUDY    71  55  56 W5        30.04R
EAGLE RIVER    FAIR      70  47  43 W5        30.03R
LAND O LAKES   FAIR      72  37  28 N5        30.05R
PHILLIPS       FAIR      70  55  59 W3        30.04S
TOMAHAWK       CLOUDY    68  58  70 CALM      30.04S
MEDFORD        FAIR      67  55  64 SW5       30.06R
MERRILL        FAIR      70  58  66 SW9       30.05R
$$

WIZ029-030-035-036-043>047-230200-
CENTRAL WISCONSIN

CITY           SKY/WX    TMP DP  RH WIND       PRES   REMARKS
WAUSAU         FAIR      68  58  70 W8        30.03R
MOSINEE        CLEAR     66  57  72 W10       30.06R
MARSHFIELD     FAIR      65  58  78 W7        30.06R
STEVENS POINT  FAIR      67  56  66 W6        30.06R
WAUPACA        FAIR      71  57  61 SW7       30.04R
WAUTOMA        FAIR      68  59  73 W7        30.05R
WISC RAPIDS    FAIR      67  60  78 W7        30.06R
CAMP DOUGLAS   MOCLDY    64  59  82 W3        30.07R
$$

WIZ011>013-019>022-031-037>040-048>050-230200-
NORTHEAST WISCONSIN

CITY           SKY/WX    TMP DP  RH WIND       PRES   REMARKS
ANTIGO         FAIR      68  56  66 W8        30.04R
SHAWANO        FAIR      73  56  55 SW5       30.01R
OCONTO         FAIR      68  54  62 S3        30.00S
STURGEON BAY   FAIR      64  54  69 S7        30.02R
GREEN BAY      FAIR      69  59  70 S5        30.02R
MANITOWOC      FAIR      51  47  86 E3        30.04S
APPLETON       PTCLDY    68  54  60 W8        30.02R
CLINTONVILLE   FAIR      71  55  55 W6        30.02R
OSHKOSH        FAIR      68  59  73 SW3       30.04R
$$

WIZ032>034-041-042-053>061-230200-
SOUTHWEST WISCONSIN

CITY           SKY/WX    TMP DP  RH WIND       PRES   REMARKS
LA CROSSE      FAIR      68  58  70 CALM      30.06R
SPARTA         CLOUDY    63  57  81 CALM      30.08R
VIROQUA        FAIR      64  60  87 CALM      30.07S
BOSCOBEL       FAIR      68  59  73 NE3       30.06R
PRAIRIE DU CHI FAIR      70  57  62 N3        30.05R
PLATTEVILLE    MOCLDY    68  63  82 NE5       30.06S
$$

WIZ056-057-062-063-064-067-068-230200-
SOUTH CENTRAL WISCONSIN

CITY           SKY/WX    TMP DP  RH WIND       PRES   REMARKS
REEDSBURG      CLOUDY    64  59  83 NW3       30.06S
BARABOO/DELLS  CLOUDY    64  56  75 CALM      30.07S
LONE ROCK      CLOUDY    66  60  81 CALM      30.06R
MINERAL POINT  FAIR      66  61  82 NE5       30.07S
MADISON        FAIR      65  57  75 NW3       30.05S
MIDDLETON      FAIR      65  59  80 NW3       30.07S
WATERTOWN      MOCLDY    65  58  79 CALM      30.06S
MONROE         CLOUDY    64  59  82 N3        30.07R
JANESVILLE     MOCLDY    68  57  68 VRB5      30.06R
$$

WIZ051-052-058>065-066-070>072-230200-
SOUTHEAST WISCONSIN

CITY           SKY/WX    TMP DP  RH WIND       PRES   REMARKS
MILWAUKEE      FAIR      57  51  80 SE3       30.06R
WAUKESHA       CLEAR     61  55  82 W7        30.07R
MILWAUKEE/TIMM CLEAR     64  52  63 S3        30.06R
RACINE         FAIR      54  50  86 S5        30.08R
BURLINGTON     CLOUDY    65  58  77 CALM      30.06R
KENOSHA        FAIR      57  50  77 S3        30.06R
FOND DU LAC    FAIR      66  57  72 SW5       30.04R
SHEBOYGAN      FAIR      61  56  83 CALM      30.03F
WEST BEND      FAIR      64  57  77 W5        30.05R
JUNEAU         FAIR      64  57  80 CALM      30.07S
$$

LSZ147-162-230200-
LAKE SUPERIOR

STATION/POSITION TIME  TEMP    WIND        PRES    WAVE
                       AIR SEA DIR/SP/G            HT/PER
                 (UTC) (F)     (DEG/KT/KT) (MB)    (FT/S)
W MID LAKE BUOY  0050   48 36  210/  4/  4 1016.0S   0
DEVILS ISLAND    0000   68     210/  4/  5 1015.4S
SAXON HARBOR     0040   72      CALM  /  1 1015.6S
$$

LMZ867-665-643>646-230200-
LAKE MICHIGAN

STATION/POSITION TIME  TEMP    WIND        PRES    WAVE
                       AIR SEA DIR/SP/G            HT/PER
                 (UTC) (F)     (DEG/KT/KT) (MB)    (FT/S)
N MID LAKE BUOY  0050   41 37  210/  8/ 10 1016.1R   0
NORTHPORT PIER   0040   54     150/  2/  4 1015.6S
KEWAUNEE LAKESHO 0048   53     170/  7/  8 1016.2S
SHEBOYGAN LAKESH 0100   53     170/ 11/ 11 1016.9F
PORT WASHINGTON  0040   52     160/  3/  4 1018.3S
ATWATER BUOY     0007   50 47  180/  6/  6 1017.7    0
MILWAUKEE LAKESH 0050   51     150/  2/  3   N/A
KENOSHA   LAKESH 0100   51                 1017.9
$$

TC  - TEMPERATURE IN CELSIUS
VSB - VISIBILITY IN STATUTE MILES
WCI - WIND CHILL INDEX
HX  - HEAT INDEX





USA.gov is the U.S. government's official web portal to all federal, state and local government web resources and services.